STARLINK-11300, 61243

Orbit data source: Space-Track

STARLINK-11300, 61243 is a payload satellite owned by SpaceX/Seattle (US) in LEO that was launched on Wed, 25 Sep 2024 UTC via an FALCON 9 launch vehicle from the Air Force Western Test Range (AFWTR). Payload-class satellites include a variety of spacecraft equipped with specific instruments for various scientific and technological missions. These include communications satellites like Starlink; space stations such as the ISS; scientific satellites like the Hubble; Earth observation satellites from companies like Planet Labs, Umbra, and HawkEye 360; GPS; miniature CubeSats for education and research; and military/defense satellites.

Not visible in the next 10 days
Identifier
61243, 2024-175A
Orbit
LEO
Country
Flag of USUS
Related business
Manufacturer
SpaceX/Seattle
Mission
Operational Commercial Communications
Bus & Motor
STARLINK V2M, Unknown motor
Mass
730 kg wet, ~700 kg dry
Launch date (UTC)
2024-09-25 (11 months ago)
Launch vehicle
FALCON 9
Launch site
Air Force Western Test Range (AFWTR)
Object type
Payload
Rocket body
Debris
Shape & HBR
Box + 2 Pan, 14.5 m
Radar Cross Section
36.964 m², Large (>1 m²)

Expand to show TLE details & history
Last TLE update: 11 hours ago

TLE from 11 hours ago
0 STARLINK-11300
1 61243U 24175A   25241.83802269  .00004287  00000-0  40257-4 0  9990
2 61243  53.1582 282.0517 0001069  82.2871 277.8268 15.69689879 53232
Epoch: 2025-08-29T20:06Z
TLE epoch observation values (Epoch: 2025-08-29T20:06:45.16Z)
Latitude
-0.00004°
Longitude
2.08257°
Altitude
360.601 km
Speed
7.694 km/s
True Right ascension
18h 48m 12s
True Declination
0° 00' 00"
Sunlit
Object was in full shadow at epoch
Visualization orbit readout
Latitude
Unknown
Longitude
Unknown
Altitude
Unknown
Speed
Unknown
Apparent Right ascension
Unknown
Apparent Declination
Unknown
Sunlit
N/A
Visualization observer readout
Local Sidereal Time
22:18:04
Azimuth
Unknown
Elevation
Unknown
Doppler factor
Unknown
Orbital elements
Apogee altitude
360.766 km
Perigee altitude
359.325 km
Semi-major axis
6,738.182 km
Eccentricity
0.00011
Inclination
53.1582°
RAAN
282.0517°
Arg. of periapsis
82.2871°
True anomaly
277.81466°
Mean anomaly
277.8268°
Eccentric anomaly
277.82073°
Mean motion
3.924 °/min
Orbital period
91.74 mins
BSTAR
0.000040257
Loading maneuver chart data...
Computing Atmospheric mass density...
Loading historical data...
Loading historical data...
Loading historical data...
Loading historical data...
Loading historical data...
Loading historical data...
Loading historical data...

Documentation

Showing up to 5 results
|